DELTA 1 DEB, 10206

Orbit data source: Space-Track

DELTA 1 DEB, 10206 is space debris in LEO originally from a launch on Thu, 14 Jul 1977 UTC launched from the Air Force Eastern Test Range (AFETR). Debris objects in space refer to the collection of defunct objects orbiting the Earth. Examples of debris include non-operational satellites, rocket bodies, and fragments generated from explosions, collisions, or faulty payload assembly.

Loading next visibility...
Identifier
10206, 1977-065AK
Orbit
LEO
Country
Flag of USUS
Related business
Manufacturer
Unknown
Mission
Spacecraft
Bus & Motor
Unknown
Mass
Unknown
Launch date (UTC)
1977-07-14 (49 years ago)
Launch vehicle
Unknown
Launch site
Air Force Eastern Test Range (AFETR)
Object type
Payload
Rocket body
Debris
Shape & HBR
Unknown shape, 0.1 m
Radar Cross Section
Small (<0.1 m²)

Expand to show TLE details & history
Last TLE update: 12 hours ago

TLE from 12 hours ago
0 DELTA 1 DEB
1 10206U 77065AK  26133.14955792  .00000296  00000-0  16830-3 0  9999
2 10206  29.2080  76.3691 0523995 254.0391 100.1847 13.41982082309945
Epoch: 2026-05-13T03:35Z
TLE epoch observation values (Epoch: 2026-05-13T03:35:21.804Z)
Latitude
-0.00001°
Longitude
151.61452°
Altitude
1,189.229 km
Speed
7.218 km/s
True Right ascension
05h 05m 28s
True Declination
0° 00' 00"
Sunlit
Object was in daylight at epoch
Visualization orbit readout
Latitude
Unknown
Longitude
Unknown
Altitude
Unknown
Speed
Unknown
Apparent Right ascension
Unknown
Apparent Declination
Unknown
Sunlit
N/A
Visualization observer readout
Local Sidereal Time
00:17:34
Azimuth
Unknown
Elevation
Unknown
Doppler factor
Unknown
Orbital elements
Apogee altitude
1,497.861 km
Perigee altitude
713.561 km
Semi-major axis
7,483.848 km
Eccentricity
0.0524
Inclination
29.208°
RAAN
76.3691°
Arg. of periapsis
254.0391°
True anomaly
106.01686°
Mean anomaly
100.1847°
Eccentric anomaly
103.10874°
Mean motion
3.3524 °/min
Orbital period
107.39 mins
BSTAR
0.0001683
Loading maneuver chart data...
Computing Atmospheric mass density...
Loading historical data...
Loading historical data...
Loading historical data...
Loading historical data...
Loading historical data...
Loading historical data...
Loading historical data...

Documentation

Showing up to 5 results
|